Location: Newark
(46.7000°N, 66.1167°W)
Time: 09:35:07
(UTC+00:00)

Envisat - Visible Passes

Search period start: 19 October 2019 00:00
Search period end: 29 October 2019 00:00
Orbit: 764 x 766 km, 98.1° (Epoch: 19 October)

Date Brightness Start Highest point End Pass type
(mag) Time Alt. Az. Time Alt. Az. Time Alt. Az.
19 Oct 6.1 10:13:37 10° NE 10:17:09 19° E 10:20:38 10° SE visible
19 Oct 4.6 23:09:24 10° SSW 23:14:03 36° W 23:18:44 10° NNW visible
20 Oct 3.2 22:32:04 10° S 22:37:09 75° WSW 22:42:16 10° NNW visible
21 Oct 3.1 21:55:31 10° SE 22:00:26 53° ENE 22:05:23 10° N visible
21 Oct 5.5 23:35:55 10° SW 23:39:46 22° W 23:43:40 10° NW visible
22 Oct 6.2 10:02:54 10° NE 10:05:44 15° E 10:08:34 10° ESE visible
22 Oct 4.2 22:57:53 10° S 23:02:44 44° W 23:07:36 10° NNW visible
23 Oct 3.0 22:20:48 10° SSE 22:25:52 88° ENE 22:30:59 10° NNW visible
24 Oct 6.1 00:03:24 10° WSW 00:05:36 13° W 00:07:49 10° WNW visible
24 Oct 3.4 21:44:27 10° SE 21:49:14 43° ENE 21:54:01 10° N visible
24 Oct 5.2 23:24:09 10° SSW 23:28:24 27° W 23:32:42 10° NW visible
25 Oct 6.5 09:52:32 10° ENE 09:54:19 12° E 09:56:05 10° ESE visible
25 Oct 3.7 22:46:26 10° S 22:51:25 55° W 22:56:26 10° NNW visible
26 Oct 2.9 22:09:34 10° SSE 22:14:38 72° ENE 22:19:42 10° N visible
26 Oct 5.9 23:51:07 10° SW 23:54:11 16° W 23:57:17 10° NW visible
27 Oct 6.0 10:16:26 10° NE 10:20:09 20° E 10:23:51 10° SE visible
27 Oct 4.8 23:12:30 10° SSW 23:17:03 33° W 23:21:38 10° NNW visible
28 Oct 3.3 22:35:04 10° S 22:40:07 69° WSW 22:45:13 10° NNW visible
